Location: Newark
(14.6100°N, 11.8447°W)
Time: 19:19:27
(UTC+00:00)

ISS - Visible Passes

Search period start: 11 November 2019 00:00
Search period end: 21 November 2019 00:00
Orbit: 412 x 421 km, 51.6° (Epoch: 12 November)

Date Brightness Start Highest point End Pass type
(mag) Time Alt. Az. Time Alt. Az. Time Alt. Az.
15 Nov -3.6 06:24:00 10° NNW 06:27:20 74° NE 06:30:40 10° SE visible
15 Nov -3.0 19:42:43 10° SSW 19:45:12 45° S 19:45:12 45° S visible
16 Nov -2.1 05:36:54 16° N 05:38:57 30° NE 05:41:57 10° ESE visible
16 Nov -2.6 18:54:49 10° S 18:57:41 27° SE 18:59:29 17° ENE visible
17 Nov -0.8 04:51:10 14° ENE 04:51:10 14° ENE 04:52:28 10° E visible
17 Nov -2.2 06:24:31 10° WNW 06:27:06 21° SW 06:29:41 10° S visible
17 Nov -1.8 19:43:07 10° WSW 19:45:52 23° NW 19:46:40 21° NNW visible
18 Nov -3.5 05:38:24 45° WSW 05:38:45 48° SW 05:42:00 10° SSE visible
18 Nov -3.1 18:54:10 10° SW 18:57:26 54° NW 19:00:42 10° NNE visible
19 Nov -1.1 04:52:40 18° SE 04:52:40 18° SE 04:53:41 10° SE visible
20 Nov -0.9 18:55:44 10° WNW 18:57:18 13° NW 18:58:52 10° NNW visible
